This demonstration page uses our WeatherBlox Daily Observations layout. Learn more.

Left ArrowRight Arrow

Hourly Observations for September 30, 2020

Temp ( °F °C ) Dew Point ( °F °C ) Humidity (%) Winds ( mph kmh ) Pressure ( in mb ) Visibility ( mi km ) Precip ( " mm )
12:54 am 00:54 Clear 55 12.8 43 6.1 64 64 Calm 29.82 1010 10 16.0934 0 0
1:54 am 01:54 Clear 52 11.1 43 6.1 72 72 S 6 9 29.8 1009 10 16.0934 0 0
2:54 am 02:54 Clear 53 11.7 43 6.1 69 69 VRB 5 7 29.79 1009 10 16.0934 0 0
3:54 am 03:54 Clear 51 10.6 42 5.6 71 71 SSE 3 6 29.78 1008 10 16.0934 0 0
4:54 am 04:54 Clear 51 10.6 42 5.6 71 71 SE 5 7 29.77 1008 10 16.0934 0 0
5:54 am 05:54 Clear 61 16.1 42 5.6 50 50 W 15 24 29.77 1008 10 16.0934 0 0
6:54 am 06:54 Clear 62 16.7 42 5.6 48 48 NW 15 24 29.83 1010 10 16.0934 0 0
7:54 am 07:54 Sunny 62 16.7 42 5.6 48 48 NNW 17 28 29.89 1012 10 16.0934 0 0
8:54 am 08:54 Sunny 64 17.8 40 4.4 41 41 N 21 33 29.94 1014 10 16.0934 0 0
9:54 am 09:54 Sunny 66 18.9 40 4.4 39 39 N 26 43 29.98 1015 10 16.0934 0 0
10:54 am 10:54 Sunny 68 20 36 2.2 31 31 NNW 29 46 30.02 1017 10 16.0934 0 0
11:54 am 11:54 Sunny 70 21.1 34 1.1 27 27 NNW 24 39 30.05 1018 10 16.0934 0 0
12:54 pm 12:54 Sunny 71 21.7 32 0 24 24 NNW 24 39 30.06 1018 10 16.0934 0.001 0.001
1:54 pm 13:54 Sunny 71 21.7 32 0 24 24 NNW 22 35 30.06 1018 10 16.0934 0 0
2:54 pm 14:54 Sunny 71 21.7 32 0 24 24 NW 26 43 30.06 1018 10 16.0934 0 0
3:54 pm 15:54 Sunny 71 21.7 27 -2.8 19 19 NNW 28 44 30.06 1018 10 16.0934 0 0
4:54 pm 16:54 Sunny 71 21.7 26 -3.3 19 19 NNW 20 31 30.06 1018 10 16.0934 0 0
5:54 pm 17:54 Sunny 69 20.6 25 -3.9 19 19 NNW 20 31 30.07 1018 10 16.0934 0 0
6:54 pm 18:54 Sunny 66 18.9 27 -2.8 23 23 NNW 13 20 30.09 1019 10 16.0934 0 0
7:54 pm 19:54 Clear 61 16.1 29 -1.7 30 30 WNW 5 7 30.11 1020 10 16.0934 0 0
8:54 pm 20:54 Clear 58 14.4 28 -2.2 32 32 NW 3 6 30.13 1020 10 16.0934 0 0
9:54 pm 21:54 Clear 49 9.4 29 -1.7 46 46 Calm 30.15 1021 10 16.0934 0 0
10:54 pm 22:54 Clear 44 6.7 30 -1.1 58 58 Calm 30.16 1021 10 16.0934 0 0
11:54 pm 23:54 Clear 46 7.8 30 -1.1 54 54 Calm 30.16 1022 10 16.0934 0 0

Powered by AerisWeather